Regional Weather Roundup
Issued by NWS Sterling, VA

Home | Current Version | Previous Version | Text Only | Print | Product List | Glossary On
Versions: 1 2 3 4 5 6 7 8 9 10 11 12 13 14 15 16 17 18 19 20 21 22 23 24 25 26 27 28 29 30 31 32 33 34 35 36 37 38 39 40 41 42 43 44 45 46 47 48 49 50
000
ASUS41 KLWX 281610
RWRLWX

REGIONAL WEATHER ROUNDUP
NATIONAL WEATHER SERVICE BALTIMORE MD/WASHINGTON DC
1200 PM EDT SAT MAR 28 2015

Note: "FAIR" indicates few or no clouds below 12,000 feet
with no significant weather and/or obstructions to visibility.
 TC=TEMPERATURE CELSIUS

 * =Non NWS site. Station does not report precipitation (e.g. rain,
    snow, etc.), thunder, or fog.

DCZ001-MDZ009-015-VAZ040>042-051-053>054-281700-
WASHINGTON METRO

CITY           SKY/WX    TMP DP  RH WIND       PRES   REMARKS
WASHINGTON NAT MOSUNNY   36  10  34 NW20G29   30.02F WCI  25
DULLES         MOSUNNY   31   8  38 NW17G30   30.03S WCI  19
ANDREWS AFB    SUNNY     32  10  40 NW20G26   29.98S WCI  20
FT BELVOIR     SUNNY     33   4  29 NW22G29   30.03R WCI  21
QUANTICO       SUNNY     35  10  35 NW17G29   30.05R WCI  25
COLLEGE PARK*  CLOUDY    32  10  40 NW14G23   30.01F WCI  22
LEESBURG*      SUNNY     32  14  47 NW20G28   30.04S WCI  20
MANASSAS*      SUNNY     32  12  43 NW22G29   30.05R WCI  19
GAITHERSBURG*  PTSUNNY   30  10  43 NW12G24   30.03S WCI  21

$$

MDZ006>007-011-014-281700-
BALTIMORE METRO

CITY           SKY/WX    TMP DP  RH WIND       PRES   REMARKS
BWI AIRPORT    PTSUNNY   33  14  45 W15G26    29.98F WCI  23
MD SCIENCE CTR   N/A     32  14  47 MISG      30.01R
MARTIN STATE   LGT SNOW  34  21  60 W21G26    30.00S WCI  22
ANNAPOLIS      CLOUDY    32  15  49 NW14G25   29.99R WCI  22

$$

MDZ012-015-019>023-281700-
MARYLAND EASTERN SHORE

CITY           SKY/WX    TMP DP  RH WIND       PRES   REMARKS
OCEAN CITY     PTSUNNY   37  24  59 NW18G25   29.92S WCI  27
SALISBURY      SUNNY     37  18  46 NW23G31   29.93F WCI  26
BAY BRIDGE AP*   N/A     32  14  47 NW15G25   29.99S WCI  22
CAMBRIDGE*     MOSUNNY   36  12  38 NW16G26   29.95F WCI  26
EASTON*        MOSUNNY   37  18  44 NW20G29   30.00S WCI  27

$$

MDZ017>025-281700-
SOUTHERN MARYLAND

CITY           SKY/WX    TMP DP  RH WIND       PRES   REMARKS
PATUXENT RIVER MOSUNNY   36  10  34 NW22G32   29.98R WCI  25
ST INIGOES     SUNNY     37  10  32 NW18G24   29.98R WCI  27
LEONARDTOWN*   SUNNY     34   9  35 W15G26    30.00R WCI  24

$$

MDZ003>005-281700-
NORTH CENTRAL MARYLAND

CITY           SKY/WX    TMP DP  RH WIND       PRES   REMARKS
FREDERICK*     CLOUDY    34   7  32 NW15G24   30.06R WCI  24
HAGERSTOWN APT CLOUDY    30  10  43 NW18      30.02R WCI  18
WESTMINSTER*   CLOUDY    28  14  54 NW13G20   29.97S WCI  18

$$

MDZ501>502-281700-
WESTERN MARYLAND

CITY           SKY/WX    TMP DP  RH WIND       PRES   REMARKS
OAKLAND*       CLOUDY    14  10  85 NW9G17    29.95R FOG     WCI   2
CUMBERLAND*    MOSUNNY   28   3  34 NW16G24   30.13S WCI  17

$$

VAZ025>031-281700-
SHENANDOAH VALLEY

CITY           SKY/WX    TMP DP  RH WIND       PRES   REMARKS
WINCHESTER*    SUNNY     32   3  29 NW21G33   30.04S WCI  20
FRONT ROYAL*   PTSUNNY   30   9  40 W16G22    30.04F WCI  19
LURAY*         FAIR      32   9  37 W20G35    30.04S WCI  20
NEW MARKET*    PTSUNNY   29   6  36 NW13      30.04S WCI  19
STAUNTON*      MOSUNNY   30   4  33 NW18G26   30.03F WCI  18
WAYNESBORO*    FAIR      29   7  39 NW15G23   30.00S WCI  18

$$

WVZ021-048>050-054>055-281700-
EASTERN WEST VIRGINIA PANHANDLE

CITY           SKY/WX    TMP DP  RH WIND       PRES   REMARKS
MARTINSBURG    PTSUNNY   32   7  35 NW16      30.05R WCI  21
PETERSBURG*    CLOUDY    27   5  39 N15G22    30.10R WCI  16

$$

VAZ036>039-050-281700-
CENTRAL FOOTHILLS

CITY           SKY/WX    TMP DP  RH WIND       PRES   REMARKS
CHARLOTTESVILL MOSUNNY   33   8  35 NW13G21   30.03S WCI  24
CULPEPER*      SUNNY     34   7  32 NW13G21   30.04S WCI  25
ORANGE*        SUNNY     36  12  38 NW10G21   30.04S WCI  28
GORDONSVILLE*  FAIR      33   8  35 W13G25    30.03S WCI  23
WARRENTON*     FAIR      35  17  49 NW15G32   30.04R WCI  25

$$

VAZ055>057-281700-
NORTH AND CENTRAL PIEDMONT

CITY           SKY/WX    TMP DP  RH WIND       PRES   REMARKS
FREDERICKSBRG* SUNNY     37  10  32 NW14G24   30.02S WCI  28
STAFFORD*      SUNNY     34   9  34 NW24G31   30.07R WCI  21

$$

NCZ024-NYZ072-PAZ021-071-VAZ022-071-281700-
OTHER REGIONAL OBSERVATIONS

CITY           SKY/WX    TMP DP  RH WIND       PRES   REMARKS
NEW YORK CITY  LGT SNOW  33  21  61 N13G21    29.85S WCI  24
PHILADELPHIA   PTSUNNY   38  17  42 N17G25    29.90S WCI  28
PITTSBURGH     PTSUNNY   21   6  52 NW10      30.14R WCI  10
ROANOKE        MOSUNNY   33   7  33 NW22G30   30.06F WCI  21
RICHMOND       PTSUNNY   38  15  39 NW20G26   30.02S WCI  28
RALEIGH        MOSUNNY   40  17  39 NW12G21   30.06R

$$

ANZ530>537-281700-
MARINE OBSERVATIONS

STATION/POSITION TIME  TEMP    WIND        PRES
                       AIR SEA DIR/SP/G
                 (UTC) (F)     (DEG/KT/KT) (MB)
THOMAS PT LIGHT  1600                        N/A
BALT KEY BRIDGE  1500   29     270/ 19/ 21 1015.4R
COVE POINT       1500   31     340/ 26/ 31 1014.7R
LEWISETTA        1500   34 44              1015.3R
SOLOMONS ISLAND  1500      43                N/A
PINEY POINT      1500          330/ 27/ 30   N/A

$$



USA.gov is the U.S. government's official web portal to all federal, state and local government web resources and services.